TimePDT,TemperatureF,Dew PointF,Humidity,Sea Level PressureIn,VisibilityMPH,Wind Direction,Wind SpeedMPH,Gust SpeedMPH,PrecipitationIn,Events,Conditions,WindDirDegrees,DateUTC
12:56 AM,51.1,46.0,83,29.93,10.0,South,4.6,-,N/A,,Partly Cloudy,170,2013-05-30 07:56:00
1:56 AM,51.1,42.1,71,29.94,10.0,South,4.6,-,N/A,,Clear,170,2013-05-30 08:56:00
2:56 AM,50.0,42.1,74,29.95,10.0,SSW,5.8,-,N/A,,Mostly Cloudy,210,2013-05-30 09:56:00
3:56 AM,50.0,42.1,74,29.96,10.0,Calm,Calm,-,N/A,,Scattered Clouds,0,2013-05-30 10:56:00
4:56 AM,46.0,41.0,83,29.98,10.0,SSE,3.5,-,N/A,,Partly Cloudy,150,2013-05-30 11:56:00
5:56 AM,46.9,42.1,83,29.99,10.0,SE,4.6,-,N/A,,Clear,140,2013-05-30 12:56:00
6:56 AM,51.1,43.0,74,30.00,10.0,Calm,Calm,-,N/A,,Clear,0,2013-05-30 13:56:00
7:56 AM,53.1,46.0,77,30.01,10.0,Calm,Calm,-,N/A,,Overcast,0,2013-05-30 14:56:00
8:56 AM,57.0,44.1,62,30.03,10.0,Calm,Calm,-,N/A,,Partly Cloudy,0,2013-05-30 15:56:00
9:56 AM,59.0,43.0,55,30.02,10.0,Calm,Calm,-,N/A,,Mostly Cloudy,0,2013-05-30 16:56:00
10:56 AM,62.1,42.1,48,30.03,10.0,Calm,Calm,-,N/A,,Partly Cloudy,0,2013-05-30 17:56:00
11:56 AM,57.9,42.1,56,30.06,10.0,NW,4.6,-,0.00,Rain,Light Rain,320,2013-05-30 18:56:00
12:56 PM,59.0,42.1,53,30.05,10.0,South,4.6,-,0.02,,Overcast,180,2013-05-30 19:56:00
1:56 PM,59.0,41.0,51,30.06,10.0,WNW,13.8,-,N/A,,Overcast,290,2013-05-30 20:56:00
2:56 PM,60.1,41.0,49,30.07,10.0,Calm,Calm,-,0.00,,Overcast,0,2013-05-30 21:56:00
3:56 PM,62.1,37.0,39,30.06,10.0,NNW,5.8,-,N/A,,Mostly Cloudy,340,2013-05-30 22:56:00
4:56 PM,63.0,35.1,35,30.06,10.0,Calm,Calm,-,N/A,,Overcast,0,2013-05-30 23:56:00
5:56 PM,64.0,36.0,35,30.06,10.0,Calm,Calm,-,N/A,,Mostly Cloudy,0,2013-05-31 00:56:00
6:56 PM,63.0,35.1,35,30.06,10.0,NW,12.7,-,N/A,,Overcast,310,2013-05-31 01:56:00
7:56 PM,62.1,36.0,38,30.07,10.0,WNW,9.2,-,N/A,,Mostly Cloudy,300,2013-05-31 02:56:00
8:56 PM,59.0,37.0,44,30.09,10.0,Calm,Calm,-,N/A,,Partly Cloudy,0,2013-05-31 03:56:00
9:56 PM,55.0,39.9,57,30.11,10.0,Calm,Calm,-,N/A,,Scattered Clouds,0,2013-05-31 04:56:00
10:56 PM,51.1,39.9,66,30.13,10.0,South,5.8,-,N/A,,Clear,170,2013-05-31 05:56:00
11:56 PM,51.1,41.0,68,30.14,10.0,Calm,Calm,-,N/A,,Overcast,0,2013-05-31 06:56:00